Location: ????? ????
(37.9717°N, 23.4051°E)
Time: 21:08:54
(UTC+00:00)

Cosmos 1697 Rocket - Visible Passes

Search period start: 12 July 2024 00:00
Search period end: 22 July 2024 00:00
Orbit: 833 x 841 km, 71.0° (Epoch: 11 July)

Date Brightness Start Highest point End Pass type
(mag) Time Alt. Az. Time Alt. Az. Time Alt. Az.
12 Jul 2.8 02:14:42 10° SSW 02:20:18 78° ESE 02:25:56 10° NNE visible
13 Jul 2.9 01:58:38 11° SSW 02:03:56 72° ESE 02:09:33 10° NNE visible
14 Jul 3.0 01:43:06 16° S 01:47:35 66° ESE 01:53:10 10° NNE visible
15 Jul 3.0 01:27:30 21° S 01:31:14 61° ESE 01:36:46 10° NNE visible
16 Jul 3.1 01:11:52 26° S 01:14:53 56° ESE 01:20:22 10° NNE visible
17 Jul 3.2 00:56:12 31° SSE 00:58:33 51° ESE 01:03:58 10° NNE visible
17 Jul 4.2 02:38:30 10° WSW 02:42:47 22° NW 02:47:04 10° N visible
18 Jul 3.3 00:40:29 36° SSE 00:42:12 47° ESE 00:47:33 10° NE visible
18 Jul 4.1 02:22:13 11° WSW 02:26:22 24° WNW 02:30:49 10° N visible
19 Jul 3.4 00:24:43 38° SE 00:25:51 43° ESE 00:31:08 10° NE visible
19 Jul 4.0 02:06:27 14° WSW 02:09:57 25° WNW 02:14:33 10° N visible
20 Jul 3.5 00:08:55 38° ESE 00:09:31 40° ESE 00:14:43 10° NE visible
20 Jul 3.9 01:50:39 18° W 01:53:32 27° WNW 01:58:17 10° N visible
20 Jul 3.6 23:53:05 36° ESE 23:53:11 36° ESE 23:58:17 10° NE visible
21 Jul 3.8 01:34:48 22° W 01:37:08 29° WNW 01:42:00 10° N visible
21 Jul 3.8 23:37:13 33° E 23:37:13 33° E 23:41:49 10° NE visible
